Radiation Dose at Monitoring Post of Fukushima Daini Nuclear Power Station
Date,Time,MP-1(microSv/h),MP-2(microSv/h),MP-3(microSv/h),MP-4(microSv/h),MP-5(microSv/h),MP-6(microSv/h),MP-7(microSv/h),Wind Direction,Wind Velocity(m/s),Rain
2018/09/23,00:00,0.300,0.185,0.300,0.291,0.280,0.148,0.092,north-northeast,1.9,No
2018/09/23,00:10,0.300,0.187,0.299,0.288,0.277,0.148,0.091,north,2.0,No
2018/09/23,00:20,0.301,0.185,0.301,0.290,0.280,0.149,0.093,north,2.9,No
2018/09/23,00:30,0.299,0.186,0.299,0.289,0.276,0.149,0.092,north-northwest,3.5,No
2018/09/23,00:40,0.301,0.185,0.301,0.290,0.279,0.148,0.091,north-northwest,5.3,No
2018/09/23,00:50,0.300,0.186,0.298,0.288,0.277,0.148,0.091,north-northwest,6.8,No
2018/09/23,01:00,0.302,0.185,0.301,0.290,0.278,0.149,0.091,north-northwest,7.1,No
2018/09/23,01:10,0.300,0.186,0.298,0.288,0.276,0.148,0.091,north-northwest,7.6,No
2018/09/23,01:20,0.302,0.185,0.300,0.290,0.279,0.148,0.091,northwest,7.3,No
2018/09/23,01:30,0.300,0.187,0.300,0.288,0.275,0.148,0.092,northwest,6.4,No
2018/09/23,01:40,0.301,0.185,0.299,0.290,0.278,0.150,0.092,west-northwest,7.5,No
2018/09/23,01:50,0.299,0.185,0.299,0.288,0.276,0.149,0.091,northwest,7.8,No
2018/09/23,02:00,0.302,0.185,0.300,0.289,0.278,0.148,0.092,northwest,6.5,No
2018/09/23,02:10,0.299,0.185,0.299,0.288,0.276,0.148,0.092,northwest,6.4,No
2018/09/23,02:20,0.302,0.185,0.300,0.290,0.278,0.148,0.092,northwest,6.5,No
2018/09/23,02:30,0.298,0.185,0.300,0.288,0.277,0.148,0.092,northwest,6.1,No
2018/09/23,02:40,0.300,0.186,0.301,0.290,0.279,0.148,0.091,northwest,6.3,No
2018/09/23,02:50,0.299,0.185,0.298,0.289,0.276,0.148,0.092,northwest,8.5,No
2018/09/23,03:00,0.301,0.186,0.300,0.289,0.278,0.148,0.092,northwest,9.2,No
2018/09/23,03:10,0.299,0.185,0.298,0.289,0.277,0.149,0.091,northwest,9.8,No
2018/09/23,03:20,0.302,0.185,0.300,0.290,0.278,0.148,0.091,northwest,9.2,No
2018/09/23,03:30,0.299,0.185,0.298,0.289,0.279,0.147,0.091,northwest,8.5,No
2018/09/23,03:40,0.301,0.186,0.299,0.290,0.276,0.149,0.092,northwest,9.5,No
2018/09/23,03:50,0.300,0.186,0.297,0.288,0.278,0.148,0.091,northwest,10.9,No
2018/09/23,04:00,0.301,0.186,0.301,0.289,0.278,0.149,0.091,northwest,10.3,No
2018/09/23,04:10,0.300,0.185,0.297,0.288,0.278,0.149,0.091,west-northwest,5.8,No
2018/09/23,04:20,0.301,0.187,0.302,0.289,0.277,0.149,0.091,west-southwest,4.8,No
2018/09/23,04:30,0.300,0.185,0.299,0.290,0.278,0.147,0.092,west-southwest,5.6,No
2018/09/23,04:40,0.301,0.186,0.301,0.288,0.276,0.149,0.091,west-southwest,3.7,No
2018/09/23,04:50,0.300,0.185,0.299,0.289,0.279,0.148,0.092,west-southwest,3.8,No
2018/09/23,05:00,0.299,0.187,0.300,0.289,0.276,0.149,0.091,west,3.6,No
2018/09/23,05:10,0.301,0.185,0.298,0.290,0.280,0.149,0.092,north-northwest,2.1,No
2018/09/23,05:20,0.299,0.185,0.301,0.287,0.276,0.149,0.091,north-northeast,3.5,No
2018/09/23,05:30,0.301,0.186,0.299,0.290,0.279,0.148,0.092,north,4.0,No
2018/09/23,05:40,0.298,0.187,0.300,0.289,0.277,0.150,0.092,north,3.2,No
2018/09/23,05:50,0.301,0.185,0.298,0.292,0.278,0.148,0.092,north-northwest,3.0,No
2018/09/23,06:00,0.299,0.186,0.300,0.289,0.279,0.149,0.092,northwest,3.2,No
2018/09/23,06:10,0.302,0.185,0.300,0.291,0.276,0.149,0.091,northwest,3.4,No
2018/09/23,06:20,0.299,0.186,0.299,0.288,0.280,0.149,0.091,northwest,4.0,No
2018/09/23,06:30,0.299,0.185,0.300,0.290,0.276,0.148,0.091,northwest,4.8,No
2018/09/23,06:40,0.302,0.186,0.298,0.290,0.279,0.148,0.091,northwest,3.9,No
2018/09/23,06:50,0.298,0.185,0.300,0.287,0.279,0.149,0.091,northwest,2.6,No
2018/09/23,07:00,0.301,0.185,0.298,0.292,0.276,0.147,0.093,north-northwest,2.1,No
2018/09/23,07:10,0.300,0.185,0.299,0.287,0.279,0.149,0.091,north-northwest,2.7,No
2018/09/23,07:20,0.298,0.185,0.300,0.287,0.278,0.148,0.091,north,3.4,No
2018/09/23,07:30,0.301,0.186,0.299,0.290,0.275,0.148,0.091,north-northwest,4.8,No
2018/09/23,07:40,0.298,0.186,0.300,0.289,0.278,0.149,0.091,north,3.7,No
2018/09/23,07:50,0.300,0.185,0.297,0.289,0.279,0.148,0.091,north-northeast,1.4,No
2018/09/23,08:00,0.302,0.185,0.301,0.290,0.276,0.148,0.091,northeast,1.9,No
2018/09/23,08:10,0.299,0.187,0.299,0.289,0.281,0.150,0.092,northeast,1.9,No
2018/09/23,08:20,0.301,0.185,0.296,0.288,0.280,0.147,0.092,north-northeast,0.6,No
2018/09/23,08:30,0.301,0.186,0.301,0.291,0.276,0.148,0.091,south,0.8,No
2018/09/23,08:40,0.299,0.187,0.299,0.289,0.274,0.150,0.092,east,0.8,No
2018/09/23,08:50,0.300,0.186,0.298,0.289,0.279,0.148,0.092,southeast,0.8,No
2018/09/23,09:00,0.303,0.185,0.302,0.289,0.280,0.148,0.092,east-southeast,1.7,No
2018/09/23,09:10,0.300,0.185,0.300,0.288,0.277,0.149,0.092,southeast,1.1,No
2018/09/23,09:20,0.299,0.184,0.297,0.288,0.277,0.148,0.093,south-southeast,1.3,No
2018/09/23,09:30,0.298,0.184,0.300,0.289,0.278,0.149,0.092,southeast,1.5,No
2018/09/23,09:40,0.297,0.185,0.300,0.289,0.278,0.148,0.093,southeast,1.6,No
2018/09/23,09:50,0.297,0.186,0.298,0.290,0.278,0.150,0.092,south-southeast,1.8,No
2018/09/23,10:00,0.299,0.186,0.300,0.291,0.277,0.149,0.091,south-southeast,2.1,No
2018/09/23,10:10,0.300,0.186,0.302,0.291,0.277,0.149,0.092,south-southeast,2.6,No
2018/09/23,10:20,0.299,0.186,0.298,0.290,0.277,0.149,0.092,south-southeast,2.7,No
2018/09/23,10:30,0.300,0.186,0.299,0.290,0.276,0.150,0.092,southeast,2.2,No
2018/09/23,10:40,0.299,0.186,0.302,0.290,0.278,0.150,0.092,south-southeast,3.1,No
2018/09/23,10:50,0.301,0.186,0.301,0.290,0.277,0.149,0.092,south-southeast,3.0,No
2018/09/23,11:00,0.301,0.186,0.300,0.290,0.277,0.151,0.092,south-southeast,3.0,No
2018/09/23,11:10,0.301,0.186,0.298,0.290,0.278,0.151,0.092,southeast,2.3,No
2018/09/23,11:20,0.301,0.186,0.299,0.290,0.279,0.152,0.092,south-southeast,1.6,No
2018/09/23,11:30,0.301,0.187,0.298,0.291,0.278,0.151,0.091,south-southeast,1.5,No
2018/09/23,11:40,0.302,0.186,0.297,0.290,0.277,0.150,0.092,south-southeast,1.4,No
2018/09/23,11:50,0.301,0.186,0.299,0.288,0.277,0.151,0.093,south-southeast,1.2,No
2018/09/23,12:00,0.300,0.186,0.302,0.289,0.277,0.151,0.092,south-southeast,0.8,No
2018/09/23,12:10,0.300,0.185,0.301,0.289,0.279,0.150,0.092,south-southeast,1.7,No
2018/09/23,12:20,0.300,0.186,0.301,0.289,0.278,0.150,0.093,south,2.4,No
2018/09/23,12:30,0.299,0.185,0.299,0.290,0.278,0.150,0.092,south,2.5,No
2018/09/23,12:40,0.299,0.186,0.299,0.291,0.279,0.150,0.092,south-southeast,3.4,No
2018/09/23,12:50,0.300,0.186,0.301,0.290,0.278,0.150,0.091,south,1.2,No
2018/09/23,13:00,0.301,0.187,0.300,0.291,0.278,0.151,0.091,south,1.3,No
2018/09/23,13:10,0.302,0.187,0.301,0.292,0.280,0.151,0.093,east-southeast,0.9,No
2018/09/23,13:20,0.301,0.187,0.301,0.292,0.280,0.151,0.093,south-southeast,1.2,No
2018/09/23,13:30,0.302,0.187,0.300,0.293,0.280,0.151,0.092,south-southeast,2.0,No
2018/09/23,13:40,0.301,0.186,0.300,0.291,0.279,0.151,0.092,southeast,1.3,No
2018/09/23,13:50,0.301,0.187,0.300,0.291,0.280,0.150,0.092,east-southeast,1.6,No
2018/09/23,14:00,0.300,0.187,0.301,0.292,0.280,0.151,0.092,south-southeast,1.7,No
2018/09/23,14:10,0.301,0.187,0.301,0.290,0.278,0.150,0.092,south-southeast,2.4,No
2018/09/23,14:20,0.300,0.188,0.299,0.291,0.281,0.151,0.093,south,2.3,No
2018/09/23,14:30,0.300,0.186,0.299,0.289,0.280,0.150,0.091,south,2.2,No
2018/09/23,14:40,0.302,0.186,0.300,0.289,0.281,0.151,0.091,south,3.0,No
2018/09/23,14:50,0.300,0.186,0.299,0.295,0.279,0.150,0.093,south-southeast,3.4,No
2018/09/23,15:00,0.301,0.186,0.302,0.294,0.278,0.151,0.093,south-southeast,2.5,No
2018/09/23,15:10,0.302,0.186,0.305,0.293,0.278,0.150,0.092,-,CALM,No
2018/09/23,15:20,0.305,0.188,0.301,0.290,0.277,0.151,0.092,south-southeast,1.0,No
2018/09/23,15:30,0.305,0.187,0.299,0.293,0.282,0.152,0.092,south-southeast,1.9,No
2018/09/23,15:40,0.301,0.188,0.304,0.294,0.281,0.151,0.092,-,CALM,No
2018/09/23,15:50,0.301,0.185,0.303,0.291,0.280,0.150,0.092,south-southeast,0.6,No
2018/09/23,16:00,0.302,0.188,0.300,0.288,0.277,0.150,0.092,south,1.0,No
2018/09/23,16:10,0.304,0.187,0.303,0.294,0.282,0.151,0.092,south,2.4,No
2018/09/23,16:20,0.303,0.186,0.304,0.293,0.283,0.151,0.094,south,3.9,No
2018/09/23,16:30,0.300,0.187,0.302,0.290,0.279,0.150,0.093,south,4.1,No
2018/09/23,16:40,0.305,0.188,0.301,0.294,0.278,0.150,0.092,south,3.0,No
2018/09/23,16:50,0.305,0.186,0.304,0.294,0.283,0.151,0.092,south,4.5,No
2018/09/23,17:00,0.301,0.186,0.303,0.290,0.280,0.151,0.093,south,5.0,No
2018/09/23,17:10,0.303,0.188,0.301,0.291,0.278,0.150,0.093,south-southwest,4.3,No
2018/09/23,17:20,0.305,0.186,0.304,0.295,0.284,0.151,0.093,south-southwest,3.8,No
2018/09/23,17:30,0.301,0.187,0.301,0.292,0.282,0.151,0.093,south-southwest,4.2,No
2018/09/23,17:40,0.301,0.189,0.301,0.292,0.279,0.149,0.092,south,3.0,No
2018/09/23,17:50,0.304,0.187,0.304,0.294,0.282,0.151,0.093,south-southwest,3.8,No
2018/09/23,18:00,0.301,0.187,0.301,0.292,0.282,0.150,0.093,south-southwest,4.7,No
2018/09/23,18:10,0.304,0.188,0.302,0.292,0.278,0.151,0.092,south-southwest,4.9,No
2018/09/23,18:20,0.303,0.186,0.303,0.294,0.282,0.151,0.092,south-southwest,4.9,No
2018/09/23,18:30,0.301,0.188,0.300,0.292,0.281,0.150,0.093,south-southwest,4.7,No
2018/09/23,18:40,0.304,0.187,0.305,0.295,0.278,0.150,0.092,south-southwest,3.6,No
2018/09/23,18:50,0.303,0.187,0.304,0.294,0.283,0.151,0.092,south-southwest,4.4,No
2018/09/23,19:00,0.303,0.188,0.301,0.291,0.279,0.150,0.093,south-southwest,5.7,No
2018/09/23,19:10,0.303,0.187,0.303,0.295,0.280,0.151,0.092,south-southwest,5.1,No
2018/09/23,19:20,0.304,0.188,0.302,0.292,0.282,0.151,0.094,south-southwest,5.4,No
2018/09/23,19:30,0.302,0.186,0.303,0.293,0.279,0.150,0.093,south-southwest,5.5,No
2018/09/23,19:40,0.304,0.187,0.302,0.296,0.281,0.153,0.092,south-southwest,5.7,No
2018/09/23,19:50,0.302,0.187,0.301,0.291,0.281,0.151,0.093,south-southwest,3.6,No
2018/09/23,20:00,0.303,0.186,0.304,0.294,0.278,0.151,0.092,south-southwest,3.4,No
2018/09/23,20:10,0.303,0.188,0.301,0.294,0.281,0.151,0.093,south-southwest,5.3,No
2018/09/23,20:20,0.302,0.187,0.304,0.292,0.281,0.150,0.093,south,4.5,No
2018/09/23,20:30,0.305,0.188,0.303,0.294,0.279,0.152,0.092,south-southwest,5.1,No
2018/09/23,20:40,0.303,0.188,0.301,0.292,0.281,0.151,0.093,south-southwest,5.1,No
2018/09/23,20:50,0.303,0.188,0.304,0.293,0.280,0.151,0.093,south-southwest,5.5,No
2018/09/23,21:00,0.304,0.189,0.301,0.293,0.281,0.152,0.093,south-southwest,5.7,No
2018/09/23,21:10,0.301,0.187,0.302,0.290,0.282,0.151,0.093,south-southwest,5.2,No
2018/09/23,21:20,0.304,0.189,0.303,0.294,0.278,0.150,0.093,south,5.9,No
2018/09/23,21:30,0.304,0.188,0.302,0.294,0.281,0.151,0.093,south-southwest,6.1,No
2018/09/23,21:40,0.303,0.187,0.303,0.293,0.282,0.151,0.094,south,7.8,No
2018/09/23,21:50,0.305,0.188,0.303,0.295,0.278,0.152,0.092,south,5.8,No
2018/09/23,22:00,0.301,0.186,0.303,0.292,0.282,0.150,0.092,south,5.4,No
2018/09/23,22:10,0.304,0.187,0.305,0.296,0.281,0.151,0.093,south-southwest,6.7,No
2018/09/23,22:20,0.304,0.188,0.300,0.296,0.281,0.151,0.093,south,8.1,Yes
2018/09/23,22:30,0.303,0.188,0.304,0.291,0.282,0.150,0.093,south,8.8,No
2018/09/23,22:40,0.304,0.187,0.303,0.295,0.278,0.151,0.093,south,8.1,No
2018/09/23,22:50,0.302,0.187,0.302,0.292,0.282,0.150,0.093,south,8.5,No
2018/09/23,23:00,0.304,0.188,0.305,0.295,0.280,0.151,0.092,south,8.2,No
2018/09/23,23:10,0.304,0.187,0.302,0.293,0.281,0.152,0.093,south,8.6,No
2018/09/23,23:20,0.302,0.188,0.304,0.290,0.282,0.151,0.093,south,7.9,No
2018/09/23,23:30,0.304,0.186,0.302,0.294,0.280,0.151,0.093,south,8.4,No
2018/09/23,23:40,0.301,0.188,0.302,0.294,0.282,0.150,0.093,south,7.6,No
2018/09/23,23:50,0.304,0.187,0.305,0.294,0.281,0.151,0.093,south-southwest,7.4,No
